"SCET";"TARGET";"ELECTRON_DENSITY";"ERROR_FLAG";"ELECTRON_DENSITY_ERROR";"FREQ_FCE";"MEASURED_VALUE";"MEASURED_ITEM";"FREQ_PLASMA";"FREQ_UPPER_HYBRID";"FREQ_R_EQUALS_ZERO";"FREQ_L_EQUALS_ZERO";"ORBIT_NUMBER";"SATURN_RADIUS";"SATURN_IAU_LONGITUDE";"SATURN_SLS4_S_LONGITUDE";"SATURN_SLS4_N_LONGITUDE";"SATURN_SLS5_S_LONGITUDE";"SATURN_SLS5_N_LONGITUDE";"SATURN_LOCAL_TIME";"SATURN_KRONOGRAPHIC_LATITUDE";"SATURN_MAGNETIC_LATITUDE";"SATURN_L";"SATURN_L_OFFSET";"SATURN_SOLAR_EQUATORIAL_X";"SATURN_SOLAR_EQUATORIAL_Y";"SATURN_SOLAR_EQUATORIAL_Z";"SATURN_ALTITUDE";"ENCELADUS_ENCOUNTER_NUMBER";"ENCELADUS_RADIUS";"ENCELADUS_COROTATIONAL_X";"ENCELADUS_COROTATIONAL_Y";"ENCELADUS_COROTATIONAL_Z";"ENCELADUS_TRUE_ANOMALY";"ENCELADUS_PERIAPSIS_TIME";"JUPITER_RADIUS";"JUPITER_SYSTEMIII_LONGITUDE";"JUPITER_MAGNETIC_LATITUDE";"JUPITER_MAGNETIC_LOCAL_TIME";"JUPITER_L";"IO_PHASE";"EARTH_RADIUS";"EARTH_MAGNETIC_LATITUDE";"EARTH_LOCAL_TIME";"EARTH_L"
"[UTC]";"[0=Saturn, 1=Enceladus, 2=Jupiter, 3=Earth]";"[cm-3]";"[0=automated, 1=manual]";"[normalized density error]";"[Hz]";"[Hz]";"[0=upper hybrid frequency, 1=plasma frequency cutoff]";"[Hz]";"[Hz]";"[Hz]";"[Hz}";"[0, A, B, C, 3, 4, ... , 292, 293]";"[Rs where 1Rs=60268km]";"[degrees]";"[degrees]";"[degrees]";"[degrees]";"[degrees]";"[hours]";"[degrees]";"[degrees where offset=2293km north]";"[Rs where 1Rs=60268km]";"[Rs where 1Rs=60268km and offset=2293km north]";"[Rs where 1Rs=60268km]";"[Rs where 1Rs=60268km]";"[Rs where 1Rs=60268km]";"[km where ellipsoid a,b=60268km and c=54364km]";"[E0, E1, E2, ... , E21, E22]";"[Renc where 1Renc=252.1km]";"[Renc where 1Renc=252.1km]";"[Renc where 1Renc=252.1km]";"[Renc where 1Renc=252.1km]";"[degrees]";"[UTC]";"[Rj where 1Rj=71492km]";"[degrees]";"[degrees using JRM09 model]";"[hours using JRM09 model]";"[Rj where 1Rj=71492km]";"[degrees]";"[Re where 1Re=6378.1366km]";"[degrees]";"[hours]";"[Re where 1Re=6378.1366km]"
2011-06-18T13:39:11.234Z;0;1.0750e+01;0;     0.177;   781.592;  29449.209; 0;  29438.836;  29449.209;  29832.225;  29050.633;149;   8.064; 298.830;;; 126.719; 336.007;  23.657;   0.054;  -0.217;   8.064;   8.055;  -8.031;   0.724;   0.008;;;;;;;;;;;;;;;;;;
2011-06-18T13:39:27.234Z;0;1.1690e+01;0;     0.136;   781.592;  30710.088; 0;  30700.141;  30710.088;  31093.424;  30311.832;149;   8.062; 298.961;;; 126.849; 336.141;  23.658;   0.054;  -0.217;   8.062;   8.054;  -8.030;   0.721;   0.008;;;;;;;;;;;;;;;;;;
2011-06-18T13:39:43.234Z;0;1.0670e+01;0;     0.167;   781.592;  29338.266; 0;  29327.854;  29338.266;  29721.252;  28939.660;149;   8.060; 299.092;;; 126.979; 336.275;  23.659;   0.053;  -0.217;   8.060;   8.052;  -8.028;   0.718;   0.008;;;;;;;;;;;;;;;;;;
2011-06-18T13:40:15.234Z;0;9.9830e+00;0;     0.150;   832.048;  28385.730; 0;  28373.533;  28385.730;  28792.607;  27960.559;149;   8.057; 299.353;;; 127.241; 336.540;  23.662;   0.053;  -0.217;   8.057;   8.049;  -8.026;   0.712;   0.007;;;;;;;;;;;;;;;;;;
2011-06-18T13:40:31.234Z;0;1.0090e+01;0;     0.076;   832.048;  28540.420; 0;  28528.289;  28540.420;  28947.346;  28115.299;149;   8.056; 299.484;;; 127.372; 336.672;  23.663;   0.053;  -0.218;   8.056;   8.048;  -8.024;   0.710;   0.007;;;;;;;;;;;;;;;;;;
2011-06-18T13:40:47.233Z;0;1.0510e+01;0;     0.144;   832.048;  29126.176; 0;  29114.289;  29126.176;  29533.285;  28701.236;149;   8.054; 299.615;;; 127.503; 336.803;  23.664;   0.053;  -0.218;   8.054;   8.046;  -8.023;   0.707;   0.007;;;;;;;;;;;;;;;;;;
2011-06-18T13:41:03.233Z;0;1.0610e+01;0;     0.150;   827.680;  29268.775; 0;  29257.070;  29268.775;  29673.838;  28846.156;149;   8.053; 299.746;;; 127.635; 336.934;  23.666;   0.053;  -0.218;   8.053;   8.044;  -8.022;   0.704;   0.007;;;;;;;;;;;;;;;;;;
2011-06-18T13:41:19.233Z;0;9.9270e+00;0;     0.153;   827.680;  28305.996; 0;  28293.893;  28305.996;  28710.760;  27883.078;149;   8.051; 299.876;;; 127.767; 337.065;  23.667;   0.053;  -0.218;   8.051;   8.043;  -8.021;   0.701;   0.007;;;;;;;;;;;;;;;;;;
2011-06-18T13:41:35.233Z;0;1.0070e+01;0;     0.171;   827.680;  28507.438; 0;  28495.420;  28507.438;  28912.264;  28084.584;149;   8.050; 300.007;;; 127.898; 337.196;  23.668;   0.053;  -0.218;   8.050;   8.041;  -8.019;   0.698;   0.007;;;;;;;;;;;;;;;;;;
2011-06-18T13:41:51.233Z;0;9.1800e+00;0;     0.166;   827.680;  27221.287; 0;  27208.701;  27221.287;  27625.688;  26798.008;149;   8.048; 300.138;;; 128.030; 337.327;  23.669;   0.052;  -0.218;   8.048;   8.040;  -8.018;   0.695;   0.007;;;;;;;;;;;;;;;;;;
2011-06-18T13:42:07.233Z;0;9.0750e+00;0;     0.189;   816.872;  27063.736; 0;  27051.406;  27063.736;  27462.924;  26646.053;149;   8.046; 300.269;;; 128.162; 337.457;  23.671;   0.052;  -0.219;   8.046;   8.038;  -8.017;   0.693;   0.007;;;;;;;;;;;;;;;;;;
2011-06-18T13:42:23.233Z;0;9.6760e+00;0;     0.132;   816.872;  27945.293; 0;  27933.352;  27945.293;  28344.773;  27527.900;149;   8.045; 300.400;;; 128.294; 337.588;  23.672;   0.052;  -0.219;   8.045;   8.037;  -8.015;   0.690;   0.007;;;;;;;;;;;;;;;;;;
2011-06-18T13:42:39.233Z;0;9.8360e+00;0;     0.148;   816.872;  28174.885; 0;  28163.041;  28174.885;  28574.438;  27757.566;149;   8.043; 300.530;;; 128.426; 337.719;  23.673;   0.052;  -0.219;   8.043;   8.035;  -8.014;   0.687;   0.007;;;;;;;;;;;;;;;;;;
2011-06-18T13:43:11.233Z;0;8.6040e+00;0;     0.151;   840.084;  26354.455; 0;  26341.062;  26354.455;  26764.453;  25924.369;149;   8.040; 300.792;;; 128.690; 337.980;  23.676;   0.052;  -0.219;   8.040;   8.032;  -8.011;   0.681;   0.007;;;;;;;;;;;;;;;;;;
2011-06-18T13:43:27.232Z;0;1.0640e+01;0;     0.135;   840.084;  29308.969; 0;  29296.926;  29308.969;  29719.980;  28879.896;149;   8.039; 300.922;;; 128.822; 338.110;  23.677;   0.052;  -0.220;   8.039;   8.031;  -8.010;   0.678;   0.007;;;;;;;;;;;;;;;;;;
2011-06-18T13:43:43.232Z;0;9.8680e+00;0;     0.162;   840.084;  28221.238; 0;  28208.732;  28221.238;  28631.900;  27791.816;149;   8.037; 301.053;;; 128.954; 338.240;  23.678;   0.051;  -0.220;   8.037;   8.029;  -8.009;   0.675;   0.007;;;;;;;;;;;;;;;;;;
2011-06-18T13:43:59.232Z;0;9.8250e+00;0;     0.157;   840.084;  28159.875; 0;  28147.342;  28159.875;  28570.518;  27730.434;149;   8.036; 301.184;;; 129.086; 338.370;  23.680;   0.051;  -0.220;   8.036;   8.027;  -8.007;   0.673;   0.007;;;;;;;;;;;;;;;;;;
2011-06-18T13:44:15.232Z;0;9.9800e+00;0;     0.182;   836.528;  28381.029; 0;  28368.699;  28381.029;  28790.045;  27953.518;149;   8.034; 301.314;;; 129.219; 338.501;  23.681;   0.051;  -0.220;   8.034;   8.026;  -8.006;   0.670;   0.007;;;;;;;;;;;;;;;;;;
2011-06-18T13:44:31.232Z;0;1.0920e+01;0;     0.135;   836.528;  29684.668; 0;  29672.879;  29684.668;  30094.090;  29257.562;149;   8.033; 301.445;;; 129.351; 338.631;  23.682;   0.051;  -0.220;   8.033;   8.024;  -8.005;   0.667;   0.007;;;;;;;;;;;;;;;;;;
2011-06-18T13:44:47.232Z;0;1.1870e+01;0;     0.143;   836.528;  30947.002; 0;  30935.693;  30947.002;  31356.785;  30520.258;149;   8.031; 301.576;;; 129.483; 338.761;  23.684;   0.051;  -0.220;   8.031;   8.023;  -8.004;   0.664;   0.007;;;;;;;;;;;;;;;;;;
2011-06-18T13:45:03.232Z;0;1.1810e+01;0;     0.091;   816.620;  30873.855; 0;  30863.053;  30873.855;  31274.064;  30457.445;149;   8.029; 301.707;;; 129.616; 338.890;  23.685;   0.051;  -0.221;   8.029;   8.021;  -8.002;   0.661;   0.007;;;;;;;;;;;;;;;;;;
2011-06-18T13:45:19.232Z;0;1.1950e+01;0;     0.157;   816.620;  31049.705; 0;  31038.965;  31049.705;  31449.961;  30633.340;149;   8.028; 301.837;;; 129.749; 339.020;  23.686;   0.051;  -0.221;   8.028;   8.020;  -8.001;   0.658;   0.007;;;;;;;;;;;;;;;;;;
2011-06-18T13:45:35.232Z;0;9.9170e+00;0;     0.162;   816.620;  28290.584; 0;  28278.795;  28290.584;  28690.053;  27873.434;149;   8.026; 301.968;;; 129.881; 339.150;  23.688;   0.051;  -0.221;   8.026;   8.018;  -8.000;   0.656;   0.007;;;;;;;;;;;;;;;;;;
2011-06-18T13:45:51.232Z;0;1.0900e+01;0;     0.150;   816.620;  29665.221; 0;  29653.979;  29665.221;  30065.100;  29248.480;149;   8.025; 302.098;;; 130.014; 339.280;  23.689;   0.050;  -0.221;   8.025;   8.017;  -7.998;   0.653;   0.007;;;;;;;;;;;;;;;;;;
2011-06-18T13:46:07.231Z;0;1.0560e+01;0;     0.162;   838.096;  29192.783; 0;  29180.750;  29192.783;  29602.807;  28764.711;149;   8.023; 302.229;;; 130.147; 339.409;  23.690;   0.050;  -0.221;   8.023;   8.015;  -7.997;   0.650;   0.007;;;;;;;;;;;;;;;;;;
2011-06-18T13:46:23.231Z;0;1.1470e+01;0;     0.151;   838.096;  30422.797; 0;  30411.250;  30422.797;  30833.186;  29995.090;149;   8.022; 302.360;;; 130.279; 339.539;  23.691;   0.050;  -0.221;   8.022;   8.014;  -7.996;   0.647;   0.007;;;;;;;;;;;;;;;;;;
2011-06-18T13:46:39.231Z;0;1.2850e+01;0;     0.144;   838.096;  32202.676; 0;  32191.768;  32202.676;  32613.543;  31775.447;149;   8.020; 302.490;;; 130.412; 339.668;  23.693;   0.050;  -0.222;   8.020;   8.012;  -7.994;   0.644;   0.007;;;;;;;;;;;;;;;;;;
2011-06-18T13:46:55.231Z;0;1.2830e+01;0;     0.129;   838.096;  32170.707; 0;  32159.789;  32170.707;  32581.566;  31743.471;149;   8.019; 302.621;;; 130.545; 339.797;  23.694;   0.050;  -0.222;   8.019;   8.010;  -7.993;   0.641;   0.007;;;;;;;;;;;;;;;;;;
2011-06-18T13:47:11.231Z;0;1.2770e+01;0;     0.121;   825.132;  32106.654; 0;  32096.049;  32106.654;  32511.268;  31686.135;149;   8.017; 302.752;;; 130.678; 339.927;  23.695;   0.050;  -0.222;   8.017;   8.009;  -7.992;   0.638;   0.007;;;;;;;;;;;;;;;;;;
2011-06-18T13:47:27.231Z;0;1.2630e+01;0;     0.149;   825.132;  31920.398; 0;  31909.732;  31920.398;  32324.965;  31499.832;149;   8.016; 302.882;;; 130.811; 340.056;  23.697;   0.050;  -0.222;   8.016;   8.007;  -7.990;   0.636;   0.007;;;;;;;;;;;;;;;;;;
2011-06-18T13:47:43.231Z;0;1.2210e+01;0;     0.159;   825.132;  31393.188; 0;  31382.342;  31393.188;  31797.619;  30972.488;149;   8.014; 303.013;;; 130.945; 340.185;  23.698;   0.050;  -0.222;   8.014;   8.006;  -7.989;   0.633;   0.007;;;;;;;;;;;;;;;;;;
2011-06-18T13:47:59.231Z;0;1.2760e+01;0;     0.143;   825.132;  32087.670; 0;  32077.059;  32087.670;  32492.277;  31667.146;149;   8.012; 303.143;;; 131.078; 340.314;  23.699;   0.049;  -0.223;   8.012;   8.004;  -7.988;   0.630;   0.007;;;;;;;;;;;;;;;;;;
2011-06-18T13:48:15.231Z;0;1.2840e+01;0;     0.143;   830.704;  32188.416; 0;  32177.695;  32188.416;  32595.729;  31765.023;149;   8.011; 303.274;;; 131.211; 340.443;  23.701;   0.049;  -0.223;   8.011;   8.003;  -7.986;   0.627;   0.007;;;;;;;;;;;;;;;;;;
2011-06-18T13:48:31.231Z;0;1.2640e+01;0;     0.152;   830.704;  31937.742; 0;  31926.938;  31937.742;  32344.990;  31514.287;149;   8.009; 303.404;;; 131.344; 340.572;  23.702;   0.049;  -0.223;   8.009;   8.001;  -7.985;   0.624;   0.007;;;;;;;;;;;;;;;;;;
2011-06-18T13:48:47.230Z;0;1.1880e+01;0;     0.132;   830.704;  30962.461; 0;  30951.314;  30962.461;  31369.453;  30538.750;149;   8.008; 303.535;;; 131.478; 340.701;  23.703;   0.049;  -0.223;   8.008;   8.000;  -7.984;   0.621;   0.007;;;;;;;;;;;;;;;;;;
2011-06-18T13:49:03.230Z;0;1.1940e+01;0;     0.142;   843.276;  31036.658; 0;  31025.199;  31036.658;  31449.703;  30606.428;149;   8.006; 303.666;;; 131.611; 340.829;  23.704;   0.049;  -0.223;   8.006;   7.998;  -7.982;   0.619;   0.007;;;;;;;;;;;;;;;;;;
2011-06-18T13:49:19.230Z;0;1.2060e+01;0;     0.135;   843.276;  31197.795; 0;  31186.396;  31197.795;  31610.885;  30767.607;149;   8.005; 303.796;;; 131.745; 340.958;  23.706;   0.049;  -0.223;   8.005;   7.997;  -7.981;   0.616;   0.007;;;;;;;;;;;;;;;;;;
2011-06-18T13:49:35.230Z;0;1.1740e+01;0;     0.141;   843.276;  30783.674; 0;  30772.121;  30783.674;  31196.648;  30353.371;149;   8.003; 303.927;;; 131.878; 341.086;  23.707;   0.049;  -0.224;   8.003;   7.995;  -7.980;   0.613;   0.007;;;;;;;;;;;;;;;;;;
2011-06-18T13:49:51.230Z;0;1.1810e+01;0;     0.149;   843.276;  30874.920; 0;  30863.402;  30874.920;  31287.920;  30444.645;149;   8.002; 304.057;;; 132.012; 341.215;  23.708;   0.049;  -0.224;   8.002;   7.994;  -7.978;   0.610;   0.007;;;;;;;;;;;;;;;;;;
2011-06-18T13:50:07.230Z;0;1.1740e+01;0;     0.150;   850.752;  30786.605; 0;  30774.848;  30786.605;  31203.164;  30352.412;149;   8.000; 304.188;;; 132.145; 341.345;  23.710;   0.048;  -0.224;   8.000;   7.992;  -7.977;   0.607;   0.007;;;;;;;;;;;;;;;;;;
2011-06-18T13:50:23.230Z;0;7.9940e+00;0;     0.203;   850.752;  25403.652; 0;  25389.402;  25403.652;  25818.342;  24967.590;149;   7.999; 304.318;;; 132.276; 341.476;  23.711;   0.048;  -0.224;   7.999;   7.990;  -7.976;   0.604;   0.007;;;;;;;;;;;;;;;;;;
2011-06-18T13:50:39.230Z;0;8.3000e+00;0;     0.195;   850.752;  25885.189; 0;  25871.205;  25885.189;  26300.078;  25449.326;149;   7.997; 304.449;;; 132.406; 341.607;  23.712;   0.048;  -0.224;   7.997;   7.989;  -7.974;   0.601;   0.007;;;;;;;;;;;;;;;;;;
2011-06-18T13:50:55.230Z;0;8.8890e+00;0;     0.194;   850.752;  26786.123; 0;  26772.609;  26786.123;  27201.365;  26350.613;149;   7.996; 304.579;;; 132.537; 341.738;  23.714;   0.048;  -0.225;   7.996;   7.987;  -7.973;   0.599;   0.007;;;;;;;;;;;;;;;;;;
2011-06-18T13:51:11.230Z;0;9.0710e+00;0;     0.173;   838.600;  27059.523; 0;  27046.525;  27059.523;  27469.076;  26630.477;149;   7.994; 304.710;;; 132.668; 341.869;  23.715;   0.048;  -0.225;   7.994;   7.986;  -7.972;   0.596;   0.007;;;;;;;;;;;;;;;;;;
2011-06-18T13:51:27.229Z;0;8.9000e+00;0;     0.205;   838.600;  26802.307; 0;  26789.184;  26802.307;  27211.766;  26373.166;149;   7.992; 304.840;;; 132.799; 342.001;  23.716;   0.048;  -0.225;   7.992;   7.984;  -7.970;   0.593;   0.007;;;;;;;;;;;;;;;;;;
2011-06-18T13:51:59.229Z;0;8.2450e+00;0;     0.194;   838.600;  25798.146; 0;  25784.514;  25798.146;  26207.223;  25368.621;149;   7.989; 305.101;;; 133.060; 342.264;  23.719;   0.048;  -0.225;   7.989;   7.981;  -7.968;   0.587;   0.007;;;;;;;;;;;;;;;;;;
2011-06-18T13:52:15.229Z;0;9.0170e+00;0;     0.192;   834.232;  26978.807; 0;  26965.906;  26978.807;  27386.248;  26552.016;149;   7.988; 305.232;;; 133.190; 342.395;  23.720;   0.047;  -0.225;   7.988;   7.980;  -7.966;   0.584;   0.007;;;;;;;;;;;;;;;;;;
2011-06-18T13:52:31.229Z;0;8.4430e+00;0;     0.207;   834.232;  26105.643; 0;  26092.311;  26105.643;  26512.760;  25678.527;149;   7.986; 305.362;;; 133.321; 342.527;  23.722;   0.047;  -0.226;   7.986;   7.978;  -7.965;   0.581;   0.007;;;;;;;;;;;;;;;;;;
2011-06-18T13:53:03.604Z;0;1.0770e+01;0;     0.168;   814.688;  29476.176; 0;  29464.916;  29476.176;  29875.074;  29060.387;149;   7.983; 305.626;;; 133.584; 342.793;  23.724;   0.047;  -0.226;   7.983;   7.975;  -7.962;   0.576;   0.007;;;;;;;;;;;;;;;;;;
2011-06-18T13:53:19.229Z;0;1.0780e+01;0;     0.163;   814.688;  29492.016; 0;  29480.762;  29492.016;  29890.920;  29076.230;149;   7.982; 305.753;;; 133.711; 342.922;  23.725;   0.047;  -0.226;   7.982;   7.974;  -7.961;   0.573;   0.007;;;;;;;;;;;;;;;;;;
2011-06-18T13:53:35.229Z;0;1.0710e+01;0;     0.189;   814.688;  29402.641; 0;  29391.352;  29402.641;  29801.518;  28986.830;149;   7.980; 305.884;;; 133.841; 343.054;  23.727;   0.047;  -0.226;   7.980;   7.972;  -7.960;   0.570;   0.007;;;;;;;;;;;;;;;;;;
2011-06-18T13:53:51.228Z;0;9.5840e+00;0;     0.187;   814.688;  27812.770; 0;  27800.836;  27812.770;  28211.164;  27396.475;149;   7.979; 306.014;;; 133.971; 343.186;  23.728;   0.047;  -0.227;   7.979;   7.970;  -7.958;   0.567;   0.006;;;;;;;;;;;;;;;;;;
2011-06-18T13:54:07.228Z;0;9.0420e+00;0;     0.197;   813.596;  27014.510; 0;  27002.256;  27014.510;  27412.117;  26598.521;149;   7.977; 306.145;;; 134.101; 343.318;  23.729;   0.046;  -0.227;   7.977;   7.969;  -7.957;   0.564;   0.006;;;;;;;;;;;;;;;;;;
2011-06-18T13:54:23.228Z;0;9.7950e+00;0;     0.176;   813.596;  28116.074; 0;  28104.301;  28116.074;  28514.043;  27700.445;149;   7.976; 306.275;;; 134.231; 343.450;  23.731;   0.046;  -0.227;   7.976;   7.967;  -7.956;   0.562;   0.006;;;;;;;;;;;;;;;;;;
2011-06-18T13:54:39.228Z;0;9.2800e+00;0;     0.192;   813.596;  27367.271; 0;  27355.176;  27367.271;  27764.998;  26951.402;149;   7.974; 306.405;;; 134.360; 343.582;  23.732;   0.046;  -0.227;   7.974;   7.966;  -7.954;   0.559;   0.006;;;;;;;;;;;;;;;;;;
2011-06-18T13:54:55.228Z;0;9.8430e+00;0;     0.169;   813.596;  28185.561; 0;  28173.816;  28185.561;  28583.551;  27769.955;149;   7.972; 306.536;;; 134.490; 343.714;  23.733;   0.046;  -0.227;   7.972;   7.964;  -7.953;   0.556;   0.006;;;;;;;;;;;;;;;;;;
2011-06-18T13:55:11.228Z;0;1.1080e+01;0;     0.170;   812.336;  29907.143; 0;  29896.107;  29907.143;  30305.035;  29492.699;149;   7.971; 306.666;;; 134.620; 343.847;  23.735;   0.046;  -0.227;   7.971;   7.963;  -7.952;   0.553;   0.006;;;;;;;;;;;;;;;;;;
2011-06-18T13:55:27.228Z;0;1.1050e+01;0;     0.159;   812.336;  29863.027; 0;  29851.977;  29863.027;  30260.908;  29448.572;149;   7.969; 306.797;;; 134.749; 343.979;  23.736;   0.046;  -0.228;   7.969;   7.961;  -7.950;   0.550;   0.006;;;;;;;;;;;;;;;;;;
2011-06-18T13:55:43.228Z;0;9.9800e+00;0;     0.175;   812.336;  28380.986; 0;  28369.357;  28380.986;  28778.434;  27966.098;149;   7.968; 306.927;;; 134.879; 344.111;  23.737;   0.046;  -0.228;   7.968;   7.960;  -7.949;   0.547;   0.006;;;;;;;;;;;;;;;;;;
2011-06-18T13:56:15.228Z;0;8.2970e+00;0;     0.173;   881.860;  25881.566; 0;  25866.539;  25881.566;  26311.227;  25429.365;149;   7.965; 307.188;;; 135.137; 344.376;  23.740;   0.045;  -0.228;   7.965;   7.957;  -7.946;   0.542;   0.006;;;;;;;;;;;;;;;;;;
2011-06-18T13:56:31.227Z;0;8.9580e+00;0;     0.149;   881.860;  26891.066; 0;  26876.604;  26891.066;  27321.148;  26439.289;149;   7.963; 307.318;;; 135.266; 344.509;  23.741;   0.045;  -0.228;   7.963;   7.955;  -7.945;   0.539;   0.006;;;;;;;;;;;;;;;;;;
2011-06-18T13:56:47.227Z;0;7.3820e+00;0;     0.181;   881.860;  24414.188; 0;  24398.256;  24414.188;  24843.170;  23961.309;149;   7.962; 307.448;;; 135.395; 344.641;  23.743;   0.045;  -0.229;   7.962;   7.954;  -7.944;   0.536;   0.006;;;;;;;;;;;;;;;;;;
2011-06-18T13:57:03.227Z;0;7.4920e+00;0;     0.216;   827.512;  24593.760; 0;  24579.834;  24593.760;  24997.072;  24169.561;149;   7.960; 307.579;;; 135.524; 344.774;  23.744;   0.045;  -0.229;   7.960;   7.952;  -7.942;   0.533;   0.006;;;;;;;;;;;;;;;;;;
2011-06-18T13:57:19.227Z;0;8.2990e+00;0;     0.210;   827.512;  25882.443; 0;  25869.211;  25882.443;  26286.275;  25458.764;149;   7.959; 307.709;;; 135.653; 344.907;  23.745;   0.045;  -0.229;   7.959;   7.951;  -7.941;   0.530;   0.006;;;;;;;;;;;;;;;;;;
2011-06-18T13:57:35.227Z;0;6.9480e+00;0;     0.205;   827.512;  23685.152; 0;  23670.691;  23685.152;  24088.064;  23260.553;149;   7.957; 307.839;;; 135.782; 345.040;  23.747;   0.045;  -0.229;   7.957;   7.949;  -7.940;   0.527;   0.006;;;;;;;;;;;;;;;;;;
2011-06-18T13:58:07.227Z;0;6.7710e+00;0;     0.213;   789.404;  23380.186; 0;  23366.855;  23380.186;  23764.891;  22975.486;149;   7.954; 308.100;;; 136.040; 345.306;  23.749;   0.045;  -0.229;   7.954;   7.946;  -7.937;   0.522;   0.006;;;;;;;;;;;;;;;;;;
2011-06-18T13:59:11.226Z;0;7.0870e+00;0;     0.250;   791.980;  23919.617; 0;  23906.502;  23919.617;  24305.771;  23513.791;149;   7.948; 308.621;;; 136.554; 345.838;  23.754;   0.044;  -0.230;   7.948;   7.940;  -7.932;   0.510;   0.006;;;;;;;;;;;;;;;;;;
2011-06-18T14:00:47.226Z;0;7.3420e+00;0;     0.175;   771.260;  24344.721; 0;  24332.500;  24344.721;  24721.186;  23949.926;149;   7.939; 309.402;;; 137.327; 346.630;  23.762;   0.043;  -0.231;   7.939;   7.931;  -7.923;   0.493;   0.006;;;;;;;;;;;;;;;;;;
2011-06-18T14:01:03.226Z;0;7.2920e+00;0;     0.143;   797.972;  24262.697; 0;  24249.572;  24262.697;  24651.840;  23853.867;149;   7.937; 309.533;;; 137.456; 346.761;  23.764;   0.043;  -0.232;   7.937;   7.929;  -7.922;   0.490;   0.006;;;;;;;;;;;;;;;;;;
2011-06-18T14:01:35.226Z;0;7.1860e+00;0;     0.209;   797.972;  24085.873; 0;  24072.650;  24085.873;  24474.943;  23676.971;149;   7.934; 309.793;;; 137.715; 347.021;  23.766;   0.043;  -0.232;   7.934;   7.926;  -7.919;   0.485;   0.006;;;;;;;;;;;;;;;;;;
2011-06-18T14:01:51.225Z;0;8.8140e+00;0;     0.212;   797.972;  26672.051; 0;  26660.111;  26672.051;  27062.082;  26264.111;149;   7.933; 309.923;;; 137.844; 347.152;  23.768;   0.043;  -0.232;   7.933;   7.925;  -7.918;   0.482;   0.006;;;;;;;;;;;;;;;;;;
2011-06-18T14:02:07.225Z;0;8.9240e+00;0;     0.190;   834.400;  26838.480; 0;  26825.506;  26838.480;  27245.951;  26411.551;149;   7.931; 310.053;;; 137.974; 347.282;  23.769;   0.043;  -0.232;   7.931;   7.923;  -7.917;   0.479;   0.006;;;;;;;;;;;;;;;;;;
2011-06-18T14:02:23.225Z;0;7.9900e+00;0;     0.191;   834.400;  25397.211; 0;  25383.500;  25397.211;  25804.129;  24969.729;149;   7.930; 310.184;;; 138.103; 347.412;  23.770;   0.042;  -0.232;   7.930;   7.921;  -7.915;   0.476;   0.006;;;;;;;;;;;;;;;;;;
2011-06-18T14:03:11.225Z;0;9.5670e+00;0;     0.217;   798.812;  27786.900; 0;  27775.416;  27786.900;  28177.693;  27378.881;149;   7.925; 310.574;;; 138.491; 347.802;  23.774;   0.042;  -0.233;   7.925;   7.917;  -7.911;   0.467;   0.006;;;;;;;;;;;;;;;;;;
2011-06-18T14:03:27.225Z;0;8.1900e+00;0;     0.188;   798.812;  25712.174; 0;  25699.762;  25712.174;  26102.271;  25303.459;149;   7.923; 310.704;;; 138.620; 347.932;  23.776;   0.042;  -0.233;   7.923;   7.915;  -7.910;   0.465;   0.006;;;;;;;;;;;;;;;;;;
2011-06-18T14:04:15.225Z;0;8.0870e+00;0;     0.204;   781.032;  25548.666; 0;  25536.725;  25548.666;  25930.227;  25149.195;149;   7.919; 311.095;;; 139.008; 348.320;  23.780;   0.041;  -0.234;   7.919;   7.911;  -7.906;   0.456;   0.006;;;;;;;;;;;;;;;;;;
2011-06-18T14:04:31.224Z;0;8.2470e+00;0;     0.224;   781.032;  25800.197; 0;  25788.373;  25800.197;  26181.846;  25400.812;149;   7.917; 311.225;;; 139.138; 348.450;  23.781;   0.041;  -0.234;   7.917;   7.909;  -7.904;   0.453;   0.006;;;;;;;;;;;;;;;;;;
2011-06-18T14:05:35.224Z;0;8.2130e+00;0;     0.187;   802.704;  25747.188; 0;  25734.672;  25747.188;  26139.152;  25336.449;149;   7.911; 311.745;;; 139.655; 348.967;  23.786;   0.041;  -0.235;   7.911;   7.903;  -7.899;   0.442;   0.006;;;;;;;;;;;;;;;;;;
2011-06-18T14:05:51.224Z;0;8.6840e+00;0;     0.207;   802.704;  26475.086; 0;  26462.914;  26475.086;  26867.311;  26064.605;149;   7.910; 311.875;;; 139.784; 349.096;  23.788;   0.041;  -0.235;   7.910;   7.902;  -7.898;   0.439;   0.006;;;;;;;;;;;;;;;;;;
2011-06-18T14:06:07.224Z;0;8.3720e+00;0;     0.197;   803.908;  25995.273; 0;  25982.840;  25995.273;  26387.902;  25583.994;149;   7.908; 312.005;;; 139.913; 349.225;  23.789;   0.041;  -0.235;   7.908;   7.900;  -7.896;   0.436;   0.006;;;;;;;;;;;;;;;;;;
2011-06-18T14:06:39.224Z;0;1.0510e+01;0;     0.192;   803.908;  29126.861; 0;  29115.766;  29126.861;  29520.494;  28716.586;149;   7.905; 312.265;;; 140.172; 349.483;  23.792;   0.040;  -0.235;   7.905;   7.897;  -7.893;   0.430;   0.006;;;;;;;;;;;;;;;;;;
2011-06-18T14:06:55.224Z;0;9.8710e+00;0;     0.170;   803.908;  28224.695; 0;  28213.244;  28224.695;  28618.062;  27814.154;149;   7.904; 312.395;;; 140.301; 349.612;  23.793;   0.040;  -0.236;   7.904;   7.896;  -7.892;   0.428;   0.006;;;;;;;;;;;;;;;;;;
2011-06-18T14:07:11.223Z;0;9.8510e+00;0;     0.167;   806.540;  28196.365; 0;  28184.828;  28196.365;  28590.982;  27784.443;149;   7.902; 312.525;;; 140.430; 349.740;  23.794;   0.040;  -0.236;   7.902;   7.894;  -7.891;   0.425;   0.006;;;;;;;;;;;;;;;;;;
2011-06-18T14:08:15.223Z;0;1.0670e+01;0;     0.171;   834.932;  29345.805; 0;  29333.924;  29345.805;  29754.361;  28919.430;149;   7.896; 313.045;;; 140.947; 350.254;  23.800;   0.040;  -0.237;   7.896;   7.888;  -7.885;   0.413;   0.005;;;;;;;;;;;;;;;;;;
2011-06-18T14:08:31.223Z;0;1.0900e+01;0;     0.154;   834.932;  29661.516; 0;  29649.762;  29661.516;  30070.166;  29235.234;149;   7.894; 313.175;;; 141.076; 350.383;  23.801;   0.039;  -0.237;   7.894;   7.886;  -7.884;   0.410;   0.005;;;;;;;;;;;;;;;;;;